Weather reports worldwide

Advertisment
Emden, Germany (10200): temperature & dewpoint: 12.01.2020 13:00:00 - 18.01.2020 13:00:00 (CET)Emden, Germany (10200): temperature 5cm & temperature -5cm: 12.01.2020 13:00:00 - 18.01.2020 13:00:00 (CET)Emden, Germany (10200): temperature -20cm & temperature -100cm: 12.01.2020 13:00:00 - 18.01.2020 13:00:00 (CET)Emden, Germany (10200): wind speed & gusts: 12.01.2020 13:00:00 - 18.01.2020 13:00:00 (CET)Emden, Germany (10200): wind direction: 12.01.2020 13:00:00 - 18.01.2020 13:00:00 (CET)Emden, Germany (10200): reduced air pressure: 12.01.2020 13:00:00 - 18.01.2020 13:00:00 (CET)Emden, Germany (10200): visibility: 12.01.2020 13:00:00 - 18.01.2020 13:00:00 (CET)Emden, Germany (10200): sunshine duration: 12.01.2020 13:00:00 - 18.01.2020 13:00:00 (CET)Emden, Germany (10200): precipitation: 12.01.2020 13:00:00 - 18.01.2020 13:00:00 (CET)
Date & Time tt [°C] td [°C] tt 5cm [°C] tt -5cm [°C] tt -20cm [°C] tt -100cm [°C] ff [km/h] ff [kn] fx [km/h] fx [kn] dd ppp [hPa] vv [km] sd [min] rr [mm]
18.01.2020 13:00:00 4,4 3,1 4,5 4,7 5,2 7,9 9 5 33 18 WSW 1020,8 54 0 2,5
18.01.2020 12:00:00 4,5 3,2 4,1 4,9 5,2 7,9 19 11 36 19 WSW 1020,7 8 0 1,0
18.01.2020 11:00:00 5,0 3,0 5,4 4,5 5,3 7,9 23 13 38 21 SW 1019,9 34 30 0,0
18.01.2020 10:00:00 4,1 2,7 3,5 3,2 5,4 7,9 24 13 39 21 SW 1019,2 22 0 0,0
18.01.2020 09:00:00 3,7 2,2 2,7 3,0 5,5 7,9 23 12 37 20 SSW 1018,6 25 0 0,0
18.01.2020 08:00:00 3,8 2,4 2,7 3,2 5,6 7,9 27 15 40 21 SSW 1018,1 20 0 0,0
18.01.2020 07:00:00 4,0 2,3 2,8 3,3 5,7 7,9 19 11 34 19 SSW 1017,8 29 0 0,0
18.01.2020 06:00:00 4,2 2,4 2,8 3,3 5,8 7,9 16 8 37 20 SSW 1017,4 36 0 0,0
18.01.2020 05:00:00 4,6 2,4 3,2 3,5 5,9 7,9 19 11 35 19 SW 1017,0 39 0 0,0
18.01.2020 04:00:00 4,7 2,7 3,3 3,8 6,0 7,9 21 11 40 21 SW 1016,8 40 0 0,0
18.01.2020 03:00:00 4,6 2,1 3,0 4,2 6,1 7,9 16 9 36 19 SW 1016,5 54 0 0,0
18.01.2020 02:00:00 4,7 2,0 3,4 5,0 6,2 7,9 17 9 40 22 WSW 1015,7 75 0 0,0
18.01.2020 01:00:00 5,4 3,2 4,2 5,4 6,2 7,9 22 12 46 25 WSW 1015,1 52 0 0,2
18.01.2020 00:00:00 5,8 3,7 5,1 5,5 6,3 7,9 26 14 48 26 WSW 1014,2 4,5 0 0,0
17.01.2020 23:00:00 6,8 4,0 5,9 5,7 6,3 7,9 22 12 39 21 SW 1013,3 54 0 0,0
17.01.2020 22:00:00 7,8 4,0 6,4 5,9 6,3 7,9 21 11 44 24 SW 1012,7 42 0 0,0
17.01.2020 21:00:00 7,9 6,2 6,5 6,3 6,3 7,9 21 11 30 16 SSW 1012,5 21 0 0,0
17.01.2020 20:00:00 8,0 7,0 6,7 6,5 6,2 7,9 12 7 29 16 SSW 1012,2 12 0 0,0
17.01.2020 19:00:00 8,5 7,6 7,9 6,9 6,2 7,9 14 8 30 16 SSW 1012,2 14 0 0,0
17.01.2020 18:00:00 8,1 7,6 7,8 6,9 6,1 7,9 15 8 27 15 SSW 1011,8 12 0 0,3
17.01.2020 17:00:00 8,3 7,4 7,8 7,0 6,0 7,9 16 8 27 15 SSW 1011,7 10 0 0,0
17.01.2020 16:00:00 8,4 7,5 7,9 7,0 5,9 7,9 14 8 26 14 SSW 1011,7 13 0 0,1
17.01.2020 15:00:00 9,1 6,6 8,6 7,0 5,8 7,9 14 8 30 16 SSW 1011,5 48 0 0,0
17.01.2020 14:00:00 9,0 6,3 8,0 6,8 5,7 7,9 16 9 29 16 SSW 1011,7 50 0 0,0
17.01.2020 13:00:00 9,1 5,6 8,5 6,5 5,6 7,9 18 10 35 19 S 1012,2 55 0 0,0
17.01.2020 12:00:00 9,0 5,2 8,2 6,1 5,5 7,9 18 10 35 19 S 1012,5 58 0 0,0
17.01.2020 11:00:00 8,9 4,9 7,8 5,5 5,5 7,9 20 11 31 17 S 1012,9 73 12 0,0
17.01.2020 10:00:00 8,1 4,7 7,5 4,8 5,5 7,9 19 10 31 17 S 1013,2 60 32 0,0
17.01.2020 09:00:00 7,5 4,2 5,9 4,3 5,5 7,9 19 11 29 16 S 1013,3 63 0 0,0
17.01.2020 08:00:00 7,5 4,4 5,7 4,4 5,5 7,9 16 9 36 20 S 1013,6 54 0 0,0
17.01.2020 07:00:00 7,6 4,5 6,0 4,5 5,5 7,9 23 12 29 16 SSE 1013,6 54 0 0,0
17.01.2020 06:00:00 8,0 4,8 6,7 4,4 5,6 7,9 17 9 28 15 SSE 1014,6 47 0 0,0
17.01.2020 05:00:00 7,6 4,7 6,2 4,4 5,6 7,9 18 10 24 13 SSE 1015,4 49 0 0,0
17.01.2020 04:00:00 7,0 4,4 5,3 4,3 5,6 7,9 16 8 27 14 SSE 1015,9 52 0 0,0
17.01.2020 03:00:00 7,4 4,6 5,5 4,2 5,7 7,9 15 8 26 14 SSE 1016,8 56 0 0,0
17.01.2020 02:00:00 6,8 4,4 5,1 4,2 5,7 7,9 18 10 32 17 SSE 1017,3 58 0 0,0
17.01.2020 01:00:00 7,2 4,4 5,7 4,2 5,8 7,9 21 11 28 15 SSE 1017,7 63 0 0,0
17.01.2020 00:00:00 6,4 4,3 5,0 4,2 5,8 7,9 22 12 29 16 SSE 1018,4 52 0 0,0
16.01.2020 23:00:00 7,2 4,5 5,5 4,3 5,9 7,9 22 12 31 17 SSE 1018,9 59 0 0,0
16.01.2020 22:00:00 6,3 4,3 4,7 4,3 6,0 7,9 18 10 28 15 SSE 1019,5 44 0 0,0
16.01.2020 21:00:00 6,7 4,6 5,3 4,5 6,0 7,9 21 11 34 18 SSE 1020,1 39 0 0,0
16.01.2020 20:00:00 6,5 4,5 5,1 4,6 6,1 7,9 21 11 26 14 SSE 1021,0 36 0 0,0
16.01.2020 19:00:00 6,5 4,4 4,8 4,8 6,1 7,9 17 9 27 15 SSE 1021,4 38 0 0,0
16.01.2020 18:00:00 6,9 4,6 5,2 5,3 6,1 7,9 18 10 26 14 SE 1021,9 43 0 0,0
16.01.2020 17:00:00 7,5 4,9 5,8 5,8 6,1 7,9 17 9 24 13 SSE 1022,3 42 0 0,0
16.01.2020 16:00:00 8,0 5,2 6,7 6,4 6,0 7,9 15 8 23 12 SSE 1022,6 43 45 0,0
16.01.2020 15:00:00 8,4 5,3 7,9 6,6 5,9 7,9 15 8 23 12 SSE 1023,1 40 46 0,0
16.01.2020 14:00:00 7,6 4,8 7,2 6,3 5,8 7,8 15 8 30 16 S 1023,8 36 0 0,0
16.01.2020 13:00:00 7,3 5,2 7,2 5,7 5,8 7,8 16 8 25 14 S 1024,4 28 25 0,0
16.01.2020 12:00:00 5,5 4,3 5,3 4,9 5,8 7,8 14 7 27 14 S 1024,8 15 28 0,0
16.01.2020 11:00:00 5,2 4,2 5,4 4,6 5,9 7,8 17 9 27 14 S 1025,2 12 29 0,0
16.01.2020 10:00:00 4,8 4,0 4,3 3,8 6,0 7,8 11 6 28 15 S 1025,1 7 0 0,0
16.01.2020 09:00:00 4,6 3,9 3,5 3,7 6,1 7,8 16 9 30 16 SSW 1024,5 6 0 0,0
16.01.2020 08:00:00 4,9 4,2 3,8 3,9 6,2 7,8 20 11 34 18 SSW 1023,7 6 0 0,0
16.01.2020 07:00:00 5,0 4,2 3,9 3,9 6,3 7,8 19 10 33 18 SSW 1023,1 7 0 0,0
16.01.2020 06:00:00 5,3 4,3 4,1 4,1 6,4 7,8 16 9 34 19 SSW 1022,6 11 0 0,0
16.01.2020 05:00:00 5,6 4,5 4,3 4,2 6,5 7,8 16 9 27 15 SSW 1022,0 12 0 0,0
16.01.2020 04:00:00 5,8 4,8 4,5 4,3 6,6 7,8 18 10 32 17 SSW 1021,2 13 0 0,0
16.01.2020 03:00:00 5,8 4,7 4,6 4,5 6,7 7,8 16 8 32 17 SSW 1020,4 16 0 0,0
16.01.2020 02:00:00 6,1 4,7 4,8 4,6 6,9 7,8 19 10 34 18 SSW 1019,7 21 0 0,0
16.01.2020 01:00:00 6,0 4,5 4,8 4,8 7,0 7,8 19 10 32 18 SW 1019,1 22 0 0,0
16.01.2020 00:00:00 6,2 4,5 4,8 5,0 7,2 7,8 16 9 32 17 SW 1018,1 33 0 0,0
15.01.2020 23:00:00 6,3 4,5 4,9 5,2 7,3 7,8 16 9 33 18 SW 1017,1 39 0 0,0
15.01.2020 22:00:00 6,4 4,5 4,9 5,5 7,4 7,8 14 7 31 17 SW 1015,9 45 0 0,0
15.01.2020 21:00:00 6,4 4,7 4,9 6,0 7,5 7,8 16 8 31 17 SW 1014,7 67 0 0,0
15.01.2020 20:00:00 6,7 4,6 5,1 6,7 7,6 7,8 12 7 25 13 SW 1013,3 71 0 0,0
15.01.2020 19:00:00 6,9 5,2 6,1 7,3 7,6 7,8 12 6 28 15 WSW 1011,8 63 0 0,2
15.01.2020 18:00:00 6,9 6,1 6,5 7,8 7,6 7,8 21 11 59 32 W 1010,5 29 0 0,8
15.01.2020 17:00:00 10,3 6,8 8,8 8,2 7,6 7,8 31 17 50 27 SW 1008,0 41 0 0,2
15.01.2020 16:00:00 10,5 6,4 9,3 8,3 7,6 7,8 31 17 52 28 SSW 1006,8 55 0 0,0
15.01.2020 15:00:00 10,2 6,6 9,3 8,5 7,6 7,8 36 20 53 28 SSW 1006,3 47 0 0,2
15.01.2020 14:00:00 11,5 5,4 10,2 8,5 7,6 7,8 27 14 44 24 SSW 1005,9 43 0 0,0
15.01.2020 13:00:00 11,3 5,5 10,0 8,4 7,5 7,8 25 14 41 22 S 1005,8 75 0 0,0
15.01.2020 12:00:00 11,3 5,8 10,0 8,4 7,5 7,8 26 14 46 25 SSW 1005,9 62 0 0,0
15.01.2020 11:00:00 11,3 5,8 10,1 8,4 7,5 7,8 26 14 51 28 SSW 1005,7 75 0 0,0
15.01.2020 10:00:00 11,0 6,2 9,8 8,2 7,5 7,8 24 13 45 25 S 1005,1 75 0 0,0
15.01.2020 09:00:00 10,7 6,2 9,5 8,1 7,5 7,8 25 14 48 26 S 1004,7 75 0 0,0
15.01.2020 08:00:00 11,1 6,4 9,7 8,3 7,5 7,8 28 15 52 28 SSW 1003,9 75 0 0,0
15.01.2020 07:00:00 11,3 7,0 10,0 8,3 7,4 7,8 29 16 52 28 SSW 1003,6 75 0 0,0
15.01.2020 06:00:00 11,4 7,5 10,0 8,5 7,4 7,8 27 15 53 28 SSW 1003,2 75 0 0,0
15.01.2020 05:00:00 11,2 8,0 10,0 8,6 7,3 7,8 29 15 52 28 SSW 1003,1 71 0 0,2
15.01.2020 04:00:00 10,4 8,8 9,6 8,6 7,3 7,8 32 17 58 32 SSW 1003,1 10 0 0,5
15.01.2020 03:00:00 10,6 9,0 9,6 8,6 7,2 7,8 35 19 66 35 SSW 1002,9 10 0 0,4
15.01.2020 02:00:00 11,0 8,4 10,3 8,6 7,2 7,8 31 17 55 30 SSW 1002,4 61 0 0,0
15.01.2020 01:00:00 11,2 8,6 10,4 8,6 7,1 7,8 33 18 58 31 SSW 1002,2 69 0 0,0
15.01.2020 00:00:00 11,9 8,3 11,0 8,5 7,0 7,8 32 17 55 30 SSW 1001,7 75 0 0,0
14.01.2020 23:00:00 11,9 8,4 11,0 8,4 7,0 7,8 31 17 58 31 SSW 1001,1 75 0 0,0
14.01.2020 22:00:00 11,4 8,1 10,6 8,1 6,9 7,8 29 16 51 28 S 1000,6 75 0 0,0
14.01.2020 21:00:00 10,8 7,6 10,0 8,0 6,9 7,8 28 15 54 29 S 1000,2 62 0 0,0
14.01.2020 20:00:00 10,6 7,2 9,8 7,9 6,8 7,8 31 17 56 30 S 1000,1 70 0 0,0
14.01.2020 19:00:00 10,2 7,0 9,3 7,8 6,8 7,8 34 18 50 27 S 1000,5 75 0 0,0
14.01.2020 18:00:00 9,6 7,5 8,7 7,8 6,8 7,8 31 17 49 27 S 1000,8 75 0 0,0
14.01.2020 17:00:00 9,2 8,0 8,5 7,9 6,7 7,8 25 14 39 21 S 1001,7 27 0 0,6
14.01.2020 16:00:00 9,4 8,0 8,7 8,0 6,6 7,8 22 12 37 20 S 1002,0 27 0 0,1
14.01.2020 15:00:00 9,7 7,5 9,2 8,0 6,5 7,8 23 13 35 19 SSW 1002,5 59 0 0,0
14.01.2020 14:00:00 9,5 7,0 9,0 8,0 6,4 7,8 21 12 39 21 SSW 1002,7 61 23 0,0
14.01.2020 13:00:00 9,8 6,7 9,7 7,8 6,4 7,8 23 12 38 20 SSW 1003,0 53 21 0,0
14.01.2020 12:00:00 9,2 7,0 8,8 7,6 6,3 7,8 20 11 40 22 SSW 1003,0 51 1 0,0
14.01.2020 11:00:00 9,1 7,1 8,6 7,1 6,2 7,8 17 9 38 21 SW 1002,6 63 0 0,0
14.01.2020 10:00:00 8,6 6,9 7,7 7,0 6,2 7,8 18 10 34 19 SW 1001,4 75 0 0,6
14.01.2020 09:00:00 8,1 6,9 7,5 7,3 6,1 7,8 21 12 46 25 WSW 1001,1 8 0 1,4
14.01.2020 08:00:00 9,2 8,2 8,6 7,2 6,0 7,8 28 15 50 27 SSW 999,8 17 0 0,7
14.01.2020 07:00:00 9,1 8,2 8,4 7,0 5,9 7,8 27 14 57 31 S 999,4 19 0 1,8
14.01.2020 06:00:00 8,9 7,7 8,2 6,8 5,8 7,8 29 15 54 29 S 999,2 24 0 0,8
14.01.2020 05:00:00 8,8 7,5 8,0 6,7 5,8 7,8 28 15 52 28 S 999,7 22 0 1,1
14.01.2020 04:00:00 9,3 7,1 8,1 6,4 5,7 7,8 29 15 52 28 S 1000,3 24 0 0,2
14.01.2020 03:00:00 9,4 6,3 8,4 6,2 5,7 7,8 29 16 45 24 S 1001,2 36 0 0,0
14.01.2020 02:00:00 8,8 5,8 8,2 5,9 5,6 7,8 30 16 45 25 S 1002,1 57 0 0,0
14.01.2020 01:00:00 8,4 5,5 7,6 5,7 5,6 7,8 26 14 46 25 S 1003,1 64 0 0,0
14.01.2020 00:00:00 8,0 5,2 7,5 5,5 5,6 7,8 28 15 46 25 S 1004,2 61 0 0,0
13.01.2020 23:00:00 7,6 4,7 7,0 5,3 5,6 7,8 29 16 47 26 S 1005,3 60 0 0,0
13.01.2020 22:00:00 7,4 4,5 6,8 5,1 5,6 7,8 29 15 44 24 S 1006,6 60 0 0,0
13.01.2020 21:00:00 6,9 4,2 6,3 4,7 5,6 7,8 29 16 42 23 SSE 1007,8 49 0 0,0
13.01.2020 20:00:00 5,9 3,9 5,3 4,4 5,7 7,8 27 14 36 20 SSE 1008,9 35 0 0,0
13.01.2020 19:00:00 5,6 3,6 4,5 4,6 5,8 7,8 25 14 36 19 SSE 1010,2 36 0 0,0
13.01.2020 18:00:00 5,7 3,7 4,4 5,0 5,8 7,8 23 12 31 17 SSE 1011,3 32 0 0,0
13.01.2020 17:00:00 6,3 3,7 5,3 5,6 5,7 7,8 18 10 34 18 S 1012,8 34 2 0,0
13.01.2020 16:00:00 7,1 4,1 6,3 6,3 5,7 7,8 17 9 31 17 S 1013,2 36 10 0,0
13.01.2020 15:00:00 7,2 4,1 7,0 6,5 5,6 7,8 17 9 36 19 S 1013,9 30 0 0,0
13.01.2020 14:00:00 7,2 4,6 7,1 6,4 5,5 7,8 18 10 32 18 S 1014,7 23 6 0,0
13.01.2020 13:00:00 7,0 5,1 7,0 6,2 5,4 7,8 16 9 31 17 S 1015,9 16 19 0,0
13.01.2020 12:00:00 6,6 5,1 6,3 5,7 5,3 7,8 18 10 29 16 S 1016,8 13 15 0,0
13.01.2020 11:00:00 6,4 4,9 6,2 5,2 5,3 7,8 17 9 32 17 SSW 1017,4 14 12 0,0
13.01.2020 10:00:00 6,2 5,1 5,5 4,9 5,3 7,8 14 7 29 16 SSW 1017,5 11 0 0,6
13.01.2020 09:00:00 6,2 5,3 5,7 4,7 5,3 7,8 19 10 30 16 SSW 1017,6 3,8 0 0,1
13.01.2020 08:00:00 5,9 5,2 5,5 4,4 5,3 7,8 11 6 29 15 SSW 1017,6 8 0 0,1
13.01.2020 07:00:00 5,5 4,9 5,1 4,1 5,4 7,8 14 8 23 12 SSW 1017,6 7 0 0,0
13.01.2020 06:00:00 5,0 4,3 3,9 4,0 5,5 7,8 11 6 25 14 SSW 1017,8 13 0 0,0
13.01.2020 05:00:00 4,9 4,1 4,1 3,7 5,6 7,8 11 6 21 11 SSW 1018,2 19 0 0,0
13.01.2020 04:00:00 4,3 3,6 3,1 3,7 5,7 7,8 13 7 21 11 SSW 1018,8 26 0 0,0
13.01.2020 03:00:00 4,5 3,7 3,1 4,0 5,8 7,8 13 7 23 13 SSW 1019,1 29 0 0,0
13.01.2020 02:00:00 5,4 4,2 3,8 4,4 5,9 7,8 10 5 21 11 SW 1019,2 28 0 0,0
13.01.2020 01:00:00 5,7 4,4 4,2 4,9 5,9 7,8 11 6 26 14 SW 1019,1 29 0 0,0
13.01.2020 00:00:00 6,5 4,9 5,5 5,5 5,9 7,8 15 8 29 16 WSW 1019,0 34 0 0,0
12.01.2020 23:00:00 6,7 5,2 5,9 6,0 5,9 7,8 18 10 39 21 WSW 1018,3 29 0 0,0
12.01.2020 22:00:00 6,6 5,8 6,2 6,1 5,8 7,8 24 13 46 25 W 1017,7 7 0 0,1
12.01.2020 21:00:00 7,2 5,4 6,7 6,2 5,8 7,8 34 19 54 29 W 1016,2 37 0 0,0
12.01.2020 20:00:00 7,9 5,3 7,2 6,4 5,7 7,8 26 14 50 27 WSW 1014,6 45 0 0,1
12.01.2020 19:00:00 8,9 6,5 8,0 6,5 5,7 7,8 24 13 43 23 WSW 1014,2 37 0 0,0
12.01.2020 18:00:00 9,0 7,4 8,0 6,4 5,6 7,8 20 11 40 22 SW 1013,9 32 0 0,2
12.01.2020 17:00:00 8,3 7,2 7,7 6,2 5,5 7,8 22 12 39 21 SW 1013,4 23 0 0,0
12.01.2020 16:00:00 7,5 6,7 7,1 6,0 5,5 7,8 25 13 43 23 SSW 1013,2 23 0 0,2
12.01.2020 15:00:00 7,2 6,4 6,8 5,8 5,4 7,8 24 13 41 22 SSW 1013,1 25 0 0,0
12.01.2020 14:00:00 6,4 5,8 6,1 5,5 5,4 7,8 27 14 46 25 SSW 1013,7 7 0 0,4
12.01.2020 13:00:00 5,5 4,9 5,4 5,3 5,4 7,8 26 14 42 23 SSW 1014,1 4,3 0 0,4

tt = temperature
td = dewpoint
tt 5cm = temperature 5cm
tt -5cm = temperature -5cm
tt -20cm = temperature -20cm
tt -100cm = temperature -100cm
ff = wind speed
fx = gusts
dd = wind direction
ppp = reduced air pressure
vv = visibility
sd = sunshine duration
rr = precipitation

Next stations